Location: Coll
(42.4728°N, 0.7714°E)
Time: 07:24:05
(UTC+00:00)

Cosmos 1674 - Pass Details

Date: 23 October 2020
Orbit: 493 x 518 km, 82.5° (Epoch: 23 November)

Event Time Altitude Azimuth Distance (km) Brightness Sun altitude
Exits shadow 05:03:16 - 208° (SSW) 2,304 5.7 -14.7°
Reaches altitude 10° 05:04:42 10° 215° (SW) 1,745 5.1 -14.5°
Maximum altitude 05:08:15 36° 283° (WNW) 835 3.2 -13.8°
Drops below altitude 10° 05:11:49 10° 351° (N) 1,750 5.3 -13.2°
Sets 05:14:05 0° 0° (N) 2,638 6.3 -12.8°
